Location: Isle of Man Observatory
(54.1776°N, 4.6264°W)
Time: 16:16:55
(UTC+02:00)

Amateur Radio Satellites - All Passes

Search period start: 22 June 2017 15:46
Search period end: 23 June 2017 15:46
Location: Isle of Man Observatory, 54.1776°N, 4.6264°W

Satellite Date Start Highest point End Downlink Frequencies (MHz)
Time Altitude Azimuth
UKube-1 22 Jun 15:47:17 15:51:33 55° 102° (ESE) 15:55:47 .
AO-7 22 Jun 15:51:31 15:59:42 64° 60° (ENE) 16:07:57 .
ISS 22 Jun 15:57:18 16:00:30 46° 192° (SSW) 16:03:40 437.550
ESTCUBE 1 22 Jun 16:09:33 16:11:36 13° 310° (NW) 16:13:37 437.505/2401.250
Oscar 19 22 Jun 16:22:17 16:25:42 18° 273° (W) 16:29:07 437.125/150
Tancredo 1 22 Jun 16:23:53 16:26:31 26° 204° (SSW) 16:29:08 437.200
VELOX 1 22 Jun 16:26:48 16:30:19 24° 302° (WNW) 16:33:49 145.980
Gurwin Techsat 1B 22 Jun 16:44:54 16:48:33 18° 273° (W) 16:52:12 435.225
50 SAT 22 Jun 16:47:47 16:50:01 17° 300° (WNW) 16:52:15 437.505
ITAMSAT 1 22 Jun 16:48:37 16:53:50 76° 255° (WSW) 16:59:06 435.822/435.867
DX 1 22 Jun 16:58:38 17:02:22 28° 299° (WNW) 17:06:07 434.975-435.025
ITUPSAT 1 22 Jun 17:09:31 17:14:06 41° 98° (E) 17:18:38 437.325
SO-50 22 Jun 17:17:46 17:22:02 41° 125° (SE) 17:26:17 436.795
BEESAT 22 Jun 17:22:04 17:26:48 53° 101° (E) 17:31:28 436.000
UKube-1 22 Jun 17:23:49 17:27:18 24° 301° (WNW) 17:30:47 .
PCSat 22 Jun 17:24:38 17:29:30 32° 333° (NNW) 17:34:23 145.827
MOZHAYETS 4 22 Jun 17:26:28 17:30:53 42° 98° (E) 17:35:13
CUTE-I 22 Jun 17:27:38 17:30:36 15° 46° (NE) 17:33:35 437.470
ISS 22 Jun 17:34:04 17:36:29 19° 211° (SSW) 17:38:54 437.550
XW-2D 22 Jun 17:39:14 17:40:05 11° 53° (NE) 17:40:56 145.860 - 145.880
LilacSat-2 22 Jun 17:42:10 17:43:35 12° 53° (NE) 17:44:59 437.200
AO-7 22 Jun 17:45:09 17:52:54 42° 262° (W) 18:00:47 .
XW-2B 22 Jun 17:47:20 17:48:52 12° 54° (NE) 17:50:26 145.730 - 145.750
KKS-1 22 Jun 17:52:25 17:54:27 13° 86° (E) 17:56:30 437.445
CUBESAT XI-V 22 Jun 17:57:45 18:01:13 21° 90° (E) 18:04:39 437.345
DOVE 4 22 Jun 18:00:54 18:04:33 30° 63° (ENE) 18:08:20 437.250
XW-2C 22 Jun 18:01:36 18:04:00 16° 58° (ENE) 18:06:24 145.795 - 145.815
HO-68 22 Jun 18:06:34 18:11:31 20° 39° (NE) 18:16:27 435.675
KAITUO 1B 22 Jun 18:24:43 18:27:32 20° 61° (ENE) 18:30:22 145.475/437.950
ITAMSAT 1 22 Jun 18:31:25 18:34:13 14° 275° (W) 18:37:01 435.822/435.867
STARS 22 Jun 18:32:32 18:34:56 14° 87° (E) 18:37:20 437.465
ITUPSAT 1 22 Jun 18:47:31 18:51:53 35° 298° (WNW) 18:56:14 437.325
CUTE 1.7 + AOD 2 22 Jun 18:48:47 18:50:23 12° 51° (NE) 18:51:58 437.475
SO-50 22 Jun 18:58:05 19:02:29 48° 326° (NW) 19:06:54 436.795
BEESAT 22 Jun 19:00:15 19:04:21 29° 301° (WNW) 19:08:26 436.000
MOZHAYETS 4 22 Jun 19:03:50 19:07:57 33° 298° (WNW) 19:12:03
CUTE-I 22 Jun 19:04:27 19:09:41 60° 67° (ENE) 19:14:58 437.470
NUDT-PHONESAT 22 Jun 19:04:54 19:08:31 44° 69° (ENE) 19:12:07 437.300
XW-2F 22 Jun 19:08:27 19:12:14 59° 71° (ENE) 19:16:01 145.980 - 146.000
XW-2D 22 Jun 19:09:43 19:13:32 65° 73° (ENE) 19:17:22 145.860 - 145.880
PCSat 22 Jun 19:10:24 19:14:31 21° 358° (N) 19:18:37 145.827
LilacSat-2 22 Jun 19:13:18 19:17:11 72° 73° (ENE) 19:21:04 437.200
XW-2B 22 Jun 19:18:35 19:22:25 77° 74° (ENE) 19:26:16 145.730 - 145.750
XW-2A 22 Jun 19:21:56 19:23:34 13° 57° (ENE) 19:25:13 145.665 - 145.685
KKS-1 22 Jun 19:27:15 19:31:46 81° 105° (ESE) 19:36:15 437.445
XW-2C 22 Jun 19:33:53 19:37:44 74° 258° (WSW) 19:41:36 145.795 - 145.815
CUBESAT XI-V 22 Jun 19:34:27 19:39:02 65° 289° (WNW) 19:43:35 437.345
DOVE 4 22 Jun 19:38:19 19:42:12 38° 264° (W) 19:46:15 437.250
AAUSAT CUBESAT 2 22 Jun 19:40:42 19:42:22 12° 52° (NE) 19:44:03 437.432
HO-68 22 Jun 19:50:56 19:57:58 59° 62° (ENE) 20:05:01 435.675
CUBEBUG 2 22 Jun 19:54:47 19:58:35 26° 59° (ENE) 20:02:28 437.445
KAITUO 1B 22 Jun 19:57:33 20:01:16 52° 260° (W) 20:04:59 145.475/437.950
STARS 22 Jun 20:07:28 20:11:56 89° 77° (ENE) 20:16:24 437.465
AO-73 22 Jun 20:08:25 20:10:54 15° 52° (NE) 20:13:25 145.935
SEEDS 22 Jun 20:11:18 20:15:09 36° 66° (ENE) 20:19:01 437.485
STRAND 1 22 Jun 20:18:22 20:20:34 13° 83° (E) 20:22:46 437.568
CUTE 1.7 + AOD 2 22 Jun 20:21:13 20:25:25 63° 72° (ENE) 20:29:39 437.475
UWE-3 22 Jun 20:35:46 20:39:58 36° 64° (ENE) 20:44:13 435.000/436.395/437.385
Oscar 11 22 Jun 20:39:19 20:42:23 19° 57° (ENE) 20:45:27 .
ZACube-1 22 Jun 20:39:34 20:43:20 26° 60° (ENE) 20:47:07 437.345
NUDT-PHONESAT 22 Jun 20:39:41 20:42:37 21° 268° (W) 20:45:35 437.300
SO-50 22 Jun 20:40:12 20:43:53 24° 349° (N) 20:47:33 436.795
XW-2F 22 Jun 20:44:09 20:46:44 17° 270° (W) 20:49:18 145.980 - 146.000
CUTE-I 22 Jun 20:45:37 20:50:07 28° 268° (W) 20:54:41 437.470
XW-2D 22 Jun 20:45:44 20:48:08 16° 271° (W) 20:50:33 145.860 - 145.880
LilacSat-2 22 Jun 20:49:44 20:51:56 14° 272° (W) 20:54:07 437.200
XW-2A 22 Jun 20:52:22 20:55:49 80° 257° (WSW) 20:59:18 145.665 - 145.685
PCSat 22 Jun 20:54:51 20:59:35 29° 24° (NNE) 21:04:18 145.827
XW-2B 22 Jun 20:55:09 20:57:07 14° 273° (W) 20:59:06 145.730 - 145.750
KKS-1 22 Jun 21:04:42 21:07:49 19° 305° (NW) 21:10:56 437.445
AAUSAT CUBESAT 2 22 Jun 21:13:00 21:17:06 69° 73° (ENE) 21:21:14 437.432
CUBESAT XI-V 22 Jun 21:13:23 21:15:35 13° 310° (NW) 21:17:47 437.345
CUBEBUG 2 22 Jun 21:30:21 21:34:53 58° 260° (W) 21:39:34 437.445
DELFI C3 22 Jun 21:38:51 21:41:37 19° 59° (ENE) 21:44:24 145.870
HO-68 22 Jun 21:39:21 21:46:01 40° 264° (W) 21:52:45 435.675
AO-73 22 Jun 21:41:51 21:46:23 72° 72° (ENE) 21:50:59 145.935
STARS 22 Jun 21:44:50 21:47:43 17° 306° (NW) 21:50:35 437.465
SEEDS 22 Jun 21:47:07 21:50:54 32° 265° (W) 21:54:42 437.485
STRAND 1 22 Jun 21:55:34 22:00:45 68° 103° (ESE) 22:05:53 437.568
EO-88 22 Jun 21:56:45 21:59:20 18° 60° (ENE) 22:01:56 145.990 - 145.960
CUTE 1.7 + AOD 2 22 Jun 21:58:38 22:01:40 19° 271° (W) 22:04:43 437.475
UWE-3 22 Jun 22:12:05 22:16:23 39° 264° (W) 22:20:47 435.000/436.395/437.385
Oscar 11 22 Jun 22:13:43 22:18:04 75° 257° (WSW) 22:22:26 .
ZACube-1 22 Jun 22:14:50 22:19:19 56° 260° (W) 22:23:53 437.345
YUBILEINY 22 Jun 22:16:54 22:22:58 21° 72° (ENE) 22:29:02 435.215
SO-50 22 Jun 22:21:52 22:25:38 25° 14° (NNE) 22:29:24 436.795
RS-15 22 Jun 22:32:35 22:43:15 38° 108° (ESE) 22:54:01 29.354- 29.394
PCSat 22 Jun 22:38:19 22:43:48 77° 49° (NE) 22:49:14 145.827
AAUSAT CUBESAT 2 22 Jun 22:50:22 22:53:02 17° 272° (W) 22:55:43 437.432
AO-85 22 Jun 22:54:30 22:57:31 21° 118° (ESE) 23:00:28 145.980
M-CUBED/EXP-1 PRIME 22 Jun 23:00:54 23:02:23 12° 96° (E) 23:03:55 437.505
FO-29 22 Jun 23:05:52 23:12:31 31° 89° (E) 23:19:18 435.910
DELFI C3 22 Jun 23:12:09 23:16:02 62° 258° (WSW) 23:19:57 145.870
AO-73 22 Jun 23:19:54 23:23:08 19° 272° (W) 23:26:23 145.935
BEESAT 3 22 Jun 23:24:02 23:27:11 22° 118° (ESE) 23:30:22 437.485
EO-88 22 Jun 23:29:04 23:32:42 56° 260° (W) 23:36:20 145.990 - 145.960
TIGRISAT 22 Jun 23:34:51 23:38:42 24° 91° (E) 23:42:29 435.000
STRAND 1 22 Jun 23:35:20 23:39:33 26° 304° (NW) 23:43:45 437.568
Oscar 11 22 Jun 23:53:37 23:55:00 11° 276° (W) 23:56:22 .
ESTCUBE 1 23 Jun 00:00:29 00:04:41 40° 65° (ENE) 00:08:54 437.505/2401.250
SO-50 23 Jun 00:02:27 00:06:55 58° 37° (NE) 00:11:24 436.795
O/OREOS (USA 219) 23 Jun 00:02:30 00:06:48 44° 112° (ESE) 00:11:08 437.305
LO-87 23 Jun 00:03:15 00:06:45 56° 71° (ENE) 00:10:17 145.935 - 145.965
YUBILEINY 23 Jun 00:09:30 00:18:15 74° 96° (E) 00:27:06 435.215
NO-84 23 Jun 00:10:32 00:12:26 13° 129° (SE) 00:14:23 435.350 FM
BEESAT 2 23 Jun 00:14:39 00:18:01 26° 120° (ESE) 00:21:25 435.950
UNISAT 6 23 Jun 00:15:31 00:20:10 55° 100° (E) 00:24:44 437.425
VELOX 1 23 Jun 00:18:23 00:21:37 20° 57° (ENE) 00:24:51 145.980
PCSat 23 Jun 00:22:19 00:26:44 26° 248° (WSW) 00:31:06 145.827
PRISM 23 Jun 00:29:54 00:34:00 71° 103° (ESE) 00:38:05 437.425
AO-85 23 Jun 00:33:33 00:37:31 70° 319° (NW) 00:41:27 145.980
M-CUBED/EXP-1 PRIME 23 Jun 00:33:46 00:37:16 82° 293° (WNW) 00:41:01 437.505
RS-15 23 Jun 00:42:13 00:54:34 90° 303° (WNW) 01:06:59 29.354- 29.394
EO-79 23 Jun 00:48:17 00:49:13 11° 84° (E) 00:50:09 145.935-145.965
DX 1 23 Jun 00:49:46 00:52:29 17° 54° (NE) 00:55:14 434.975-435.025
FO-29 23 Jun 00:50:35 00:58:13 81° 289° (WNW) 01:06:07 435.910
BEESAT 3 23 Jun 01:00:25 01:04:25 68° 319° (NW) 01:08:28 437.485
SPROUT 23 Jun 01:04:24 01:08:29 46° 67° (ENE) 01:12:37 437.525
DUCHIFAT 1 23 Jun 01:05:35 01:07:34 13° 86° (E) 01:09:34 145.980
AIST 2D 23 Jun 01:07:16 01:10:16 26° 94° (E) 01:13:15 435.315
TIGRISAT 23 Jun 01:11:05 01:15:44 57° 291° (WNW) 01:20:17 435.000
NANOSAT C BR1 23 Jun 01:11:39 01:14:21 16° 88° (E) 01:17:02 145.865
UKube-1 23 Jun 01:13:37 01:16:38 19° 55° (NE) 01:19:38 .
ESTCUBE 1 23 Jun 01:37:32 01:41:35 32° 265° (W) 01:45:39 437.505/2401.250
LO-87 23 Jun 01:38:19 01:40:32 16° 271° (W) 01:42:47 145.935 - 145.965
O/OREOS (USA 219) 23 Jun 01:42:11 01:46:21 35° 313° (NW) 01:50:31 437.305
SO-50 23 Jun 01:43:11 01:47:13 32° 238° (WSW) 01:51:15 436.795
NO-84 23 Jun 01:45:10 01:49:10 46° 149° (SSE) 01:53:21 435.350 FM
POLYITAN 1 23 Jun 01:45:17 01:49:14 34° 96° (E) 01:53:08 437.675
BEESAT 2 23 Jun 01:51:32 01:55:31 59° 320° (NW) 01:59:34 435.950
50 SAT 23 Jun 01:52:03 01:55:22 60° 72° (ENE) 01:58:44 437.505
UNISAT 6 23 Jun 01:52:40 01:56:37 27° 300° (WNW) 02:00:31 437.425
VELOX 1 23 Jun 01:53:17 01:57:38 70° 256° (WSW) 02:02:03 145.980
QB50P2 23 Jun 01:55:48 01:59:57 45° 99° (E) 02:04:03 145.880/145.840
PRISM 23 Jun 02:06:02 02:08:51 18° 303° (WNW) 02:11:41 437.425
YUBILEINY 23 Jun 02:07:57 02:15:55 36° 301° (WNW) 02:23:59 435.215
M-CUBED/EXP-1 PRIME 23 Jun 02:09:40 02:11:17 13° 311° (NW) 02:12:55 437.505
AO-85 23 Jun 02:15:21 02:18:32 23° 341° (NNW) 02:21:43 145.980
EO-79 23 Jun 02:21:29 02:25:49 71° 104° (ESE) 02:30:04 145.935-145.965
DX 1 23 Jun 02:23:46 02:28:07 89° 266° (W) 02:32:29 434.975-435.025
BUGSAT 1 23 Jun 02:28:07 02:31:44 26° 93° (E) 02:35:20 437.445
FO-29 23 Jun 02:36:17 02:42:21 28° 310° (NW) 02:48:38 435.910
BEESAT 3 23 Jun 02:39:22 02:42:40 23° 341° (NNW) 02:45:58 437.485
DUCHIFAT 1 23 Jun 02:39:37 02:43:55 87° 106° (ESE) 02:48:11 145.980
AIST 2D 23 Jun 02:40:21 02:43:32 32° 293° (WNW) 02:46:40 435.315
SPROUT 23 Jun 02:41:00 02:44:36 26° 267° (W) 02:48:14 437.525
Oscar 19 23 Jun 02:45:55 02:49:33 19° 88° (E) 02:53:10 437.125/150
NANOSAT C BR1 23 Jun 02:46:18 02:50:35 76° 289° (WNW) 02:54:51 145.865
ITUPSAT 1 23 Jun 02:46:37 02:50:07 20° 54° (NE) 02:53:37 437.325
UKube-1 23 Jun 02:47:53 02:52:11 76° 256° (WSW) 02:56:32 .
TIGRISAT 23 Jun 02:49:30 02:51:29 13° 311° (NW) 02:53:27 435.000
RS-15 23 Jun 02:56:24 03:08:32 55° 345° (NNW) 03:20:31 29.354- 29.394
BEESAT 23 Jun 02:58:26 03:02:17 24° 57° (ENE) 03:06:08 436.000
MOZHAYETS 4 23 Jun 02:59:39 03:02:36 17° 53° (NE) 03:05:33
Gurwin Techsat 1B 23 Jun 03:12:26 03:16:29 21° 89° (E) 03:20:30 435.225
POLYITAN 1 23 Jun 03:21:05 03:25:02 36° 296° (WNW) 03:28:57 437.675
NO-84 23 Jun 03:22:21 03:26:39 86° 350° (N) 03:31:05 435.350 FM
O/OREOS (USA 219) 23 Jun 03:25:24 03:27:09 12° 337° (NNW) 03:28:53 437.305
50 SAT 23 Jun 03:26:46 03:28:33 14° 270° (W) 03:30:21 437.505
BEESAT 2 23 Jun 03:30:46 03:34:01 22° 343° (NNW) 03:37:17 435.950
QB50P2 23 Jun 03:31:54 03:35:35 28° 298° (WNW) 03:39:14 145.880/145.840
VELOX 1 23 Jun 03:33:58 03:34:57 11° 276° (W) 03:35:57 145.980
AO-7 23 Jun 03:48:23 03:50:57 11° 76° (ENE) 03:53:29 .
AO-85 23 Jun 03:57:20 04:00:09 18° 6° (N) 04:03:01 145.980
EO-79 23 Jun 03:58:03 04:01:08 19° 303° (WNW) 04:04:12 145.935-145.965
DX 1 23 Jun 04:02:46 04:04:58 14° 273° (W) 04:07:11 434.975-435.025
BUGSAT 1 23 Jun 04:03:12 04:07:17 45° 293° (WNW) 04:11:21 437.445
YUBILEINY 23 Jun 04:12:19 04:16:15 13° 331° (NNW) 04:20:11 435.215
DUCHIFAT 1 23 Jun 04:16:20 04:19:02 17° 305° (NW) 04:21:43 145.980
BEESAT 3 23 Jun 04:18:35 04:21:28 18° 5° (N) 04:24:21 437.485
ITUPSAT 1 23 Jun 04:22:35 04:27:25 83° 254° (WSW) 04:32:17 437.325
NANOSAT C BR1 23 Jun 04:23:24 04:25:37 14° 308° (NW) 04:27:48 145.865
FO-29 23 Jun 04:23:28 04:25:05 11° 334° (NNW) 04:26:44 435.910
Oscar 19 23 Jun 04:24:22 04:29:32 81° 288° (WNW) 04:34:38 437.125/150
UKube-1 23 Jun 04:27:37 04:29:00 11° 275° (W) 04:30:23 .
MOZHAYETS 4 23 Jun 04:34:27 04:39:07 84° 72° (ENE) 04:43:48
BEESAT 23 Jun 04:34:56 04:39:42 65° 257° (WSW) 04:44:29 436.000
Gurwin Techsat 1B 23 Jun 04:51:41 04:57:02 77° 290° (WNW) 05:02:21 435.225
ITAMSAT 1 23 Jun 04:55:01 04:59:13 24° 91° (E) 05:03:23 435.822/435.867
KKS-1 23 Jun 04:55:59 04:59:43 28° 60° (ENE) 05:03:30 437.445
NO-84 23 Jun 05:00:02 05:04:26 87° 11° (N) 05:08:50 435.350 FM
CUBESAT XI-V 23 Jun 05:07:02 05:11:23 42° 66° (ENE) 05:15:46 437.345
BEESAT 2 23 Jun 05:10:04 05:13:02 19° 7° (N) 05:16:00 435.950
RS-15 23 Jun 05:11:28 05:23:39 56° 17° (NNE) 05:35:25 29.354- 29.394
STARS 23 Jun 05:34:46 05:38:34 29° 61° (ENE) 05:42:23 437.465
AO-85 23 Jun 05:37:54 05:41:34 34° 30° (NNE) 05:45:22 145.980
AO-7 23 Jun 05:37:58 05:46:03 48° 100° (E) 05:54:04 .
BEESAT 3 23 Jun 05:56:28 06:00:09 31° 28° (NNE) 06:03:46 437.485
ITUPSAT 1 23 Jun 06:03:24 06:06:01 14° 274° (W) 06:08:39 437.325
Oscar 19 23 Jun 06:04:41 06:08:09 19° 309° (NW) 06:11:36 437.125/150
MOZHAYETS 4 23 Jun 06:14:00 06:16:54 16° 273° (W) 06:19:50
BEESAT 23 Jun 06:17:05 06:18:27 11° 277° (W) 06:19:48 436.000
KKS-1 23 Jun 06:31:48 06:36:05 49° 260° (W) 06:40:26 437.445
Gurwin Techsat 1B 23 Jun 06:32:40 06:36:14 18° 310° (NW) 06:39:47 435.225
ITAMSAT 1 23 Jun 06:33:56 06:39:10 69° 291° (WNW) 06:44:22 435.822/435.867
NO-84 23 Jun 06:37:43 06:41:54 44° 212° (SSW) 06:46:02 435.350 FM
CUBESAT XI-V 23 Jun 06:44:44 06:48:53 32° 265° (W) 06:53:03 437.345
O/OREOS (USA 219) 23 Jun 06:47:51 06:50:19 14° 29° (NNE) 06:52:47 437.305
BEESAT 2 23 Jun 06:48:03 06:51:50 35° 30° (NNE) 06:55:35 435.950
STARS 23 Jun 07:10:34 07:14:46 44° 261° (W) 07:19:01 437.465
CUTE-I 23 Jun 07:15:51 07:18:43 14° 84° (E) 07:21:34 437.470
AO-85 23 Jun 07:18:12 07:22:10 55° 230° (SW) 07:26:18 145.980
KAITUO 1B 23 Jun 07:24:13 07:24:59 10° 85° (E) 07:25:44 145.475/437.950
RS-15 23 Jun 07:25:02 07:37:25 86° 227° (SW) 07:49:12 29.354- 29.394
DOVE 4 23 Jun 07:29:00 07:33:21 35° 96° (E) 07:37:54 437.250
AO-7 23 Jun 07:30:54 07:39:03 58° 303° (WNW) 07:47:10 .
BEESAT 3 23 Jun 07:34:00 07:38:02 66° 229° (SW) 07:41:59 437.485
STRAND 1 23 Jun 07:39:43 07:44:22 36° 61° (ENE) 07:49:04 437.568
FO-29 23 Jun 07:47:25 07:48:39 11° 25° (NNE) 07:49:54 435.910
NUDT-PHONESAT 23 Jun 08:02:38 08:05:44 24° 93° (E) 08:08:50 437.300
XW-2F 23 Jun 08:08:06 08:11:33 33° 96° (E) 08:14:59 145.980 - 146.000
XW-2D 23 Jun 08:09:47 08:13:21 37° 97° (E) 08:16:52 145.860 - 145.880
LilacSat-2 23 Jun 08:14:08 08:17:48 42° 98° (E) 08:21:25 437.200
ITAMSAT 1 23 Jun 08:14:35 08:17:48 17° 312° (NW) 08:21:00 435.822/435.867
YUBILEINY 23 Jun 08:14:45 08:20:39 19° 41° (NE) 08:26:30 435.215
NO-84 23 Jun 08:16:41 08:18:39 13° 231° (SW) 08:20:35 435.350 FM
XW-2B 23 Jun 08:18:38 08:22:18 44° 99° (E) 08:25:55 145.730 - 145.750
BEESAT 2 23 Jun 08:25:47 08:29:48 56° 231° (SW) 08:33:46 435.950
O/OREOS (USA 219) 23 Jun 08:26:29 08:30:51 48° 52° (NE) 08:35:12 437.305
XW-2C 23 Jun 08:33:54 08:37:42 64° 103° (ESE) 08:41:26 145.795 - 145.815
CUTE-I 23 Jun 08:54:19 08:59:44 74° 104° (ESE) 09:05:07 437.470
KAITUO 1B 23 Jun 08:55:52 08:59:37 87° 101° (E) 09:03:20 145.475/437.950
HO-68 23 Jun 08:58:51 09:05:14 33° 93° (E) 09:11:33 435.675
DOVE 4 23 Jun 09:06:42 09:11:07 41° 294° (WNW) 09:15:45 437.250
TIGRISAT 23 Jun 09:07:50 09:08:13 10° 45° (NE) 09:08:37 435.000
BEESAT 3 23 Jun 09:13:36 09:14:50 11° 249° (WSW) 09:16:04 437.485
CUBEBUG 2 23 Jun 09:14:45 09:18:29 22° 89° (E) 09:22:08 437.445
STRAND 1 23 Jun 09:18:33 09:23:29 46° 261° (W) 09:28:28 437.568
SEEDS 23 Jun 09:23:43 09:27:19 27° 93° (E) 09:30:53 437.485
AO-7 23 Jun 09:24:12 09:30:17 23° 327° (NNW) 09:36:22 .
FO-29 23 Jun 09:26:08 09:31:24 28° 50° (NE) 09:37:12 435.910
CUTE 1.7 + AOD 2 23 Jun 09:34:59 09:39:06 50° 99° (E) 09:43:12 437.475
NUDT-PHONESAT 23 Jun 09:36:18 09:39:46 37° 293° (WNW) 09:43:12 437.300
RS-15 23 Jun 09:38:11 09:48:25 34° 255° (WSW) 09:58:17 29.354- 29.394
XW-2A 23 Jun 09:40:20 09:43:37 41° 99° (E) 09:46:52 145.665 - 145.685
XW-2F 23 Jun 09:42:21 09:45:38 28° 296° (WNW) 09:48:54 145.980 - 146.000
XW-2D 23 Jun 09:44:13 09:47:25 26° 297° (WNW) 09:50:36 145.860 - 145.880
UNISAT 6 23 Jun 09:45:33 09:48:51 20° 55° (NE) 09:52:12 437.425
LilacSat-2 23 Jun 09:48:47 09:51:54 24° 298° (WNW) 09:54:59 437.200
PRISM 23 Jun 09:51:33 09:54:27 19° 57° (ENE) 09:57:22 437.425
M-CUBED/EXP-1 PRIME 23 Jun 09:52:03 09:55:12 46° 63° (ENE) 09:58:22 437.505
XW-2B 23 Jun 09:53:15 09:56:17 23° 298° (WNW) 09:59:18 145.730 - 145.750
UWE-3 23 Jun 09:54:41 09:58:49 30° 93° (E) 10:02:52 435.000/436.395/437.385
Oscar 11 23 Jun 09:55:27 09:57:41 14° 86° (E) 09:59:55 .
ZACube-1 23 Jun 09:56:57 10:00:19 20° 89° (E) 10:03:38 437.345
O/OREOS (USA 219) 23 Jun 10:06:12 10:10:06 29° 253° (WSW) 10:13:57 437.305
XW-2C 23 Jun 10:08:56 10:11:29 17° 302° (WNW) 10:14:01 145.795 - 145.815
YUBILEINY 23 Jun 10:11:15 10:19:57 55° 69° (ENE) 10:28:34 435.215
AAUSAT CUBESAT 2 23 Jun 10:23:37 10:27:38 51° 100° (E) 10:31:39 437.432
KAITUO 1B 23 Jun 10:31:12 10:33:05 14° 304° (NW) 10:34:58 145.475/437.950
CUTE-I 23 Jun 10:34:59 10:39:21 26° 305° (NW) 10:43:41 437.470
TIGRISAT 23 Jun 10:39:25 10:43:48 44° 66° (ENE) 10:48:17 435.000
DELFI C3 23 Jun 10:44:13 10:45:27 11° 85° (E) 10:46:40 145.870
HO-68 23 Jun 10:46:22 10:53:33 70° 295° (WNW) 11:00:40 435.675
CUBEBUG 2 23 Jun 10:50:46 10:55:30 64° 289° (WNW) 11:00:09 437.445
SEEDS 23 Jun 10:59:13 11:03:09 41° 293° (WNW) 11:07:03 437.485
AO-73 23 Jun 10:59:14 11:03:45 61° 101° (ESE) 11:08:07 145.935
FO-29 23 Jun 11:09:30 11:15:40 85° 254° (WSW) 11:22:46 435.910
CUTE 1.7 + AOD 2 23 Jun 11:11:17 11:14:43 25° 299° (WNW) 11:18:07 437.475
POLYITAN 1 23 Jun 11:11:35 11:13:02 12° 50° (NE) 11:14:30 437.675
XW-2A 23 Jun 11:13:32 11:16:10 21° 298° (WNW) 11:18:46 145.665 - 145.685
AO-7 23 Jun 11:16:27 11:20:10 14° 354° (N) 11:23:53 .
UNISAT 6 23 Jun 11:20:23 11:25:01 82° 256° (WSW) 11:29:45 437.425
QB50P2 23 Jun 11:21:12 11:23:31 14° 53° (NE) 11:25:50 145.880/145.840
PRISM 23 Jun 11:25:19 11:29:21 65° 257° (WSW) 11:33:25 437.425
M-CUBED/EXP-1 PRIME 23 Jun 11:27:47 11:29:58 16° 261° (W) 11:32:08 437.505
Oscar 11 23 Jun 11:30:08 11:34:29 89° 291° (WNW) 11:38:48 .
UWE-3 23 Jun 11:30:59 11:35:26 44° 293° (WNW) 11:39:46 435.000/436.395/437.385
ZACube-1 23 Jun 11:32:32 11:37:04 65° 289° (WNW) 11:41:28 437.345
EO-79 23 Jun 11:45:44 11:48:53 20° 58° (ENE) 11:52:02 145.935-145.965
AIST 2D 23 Jun 11:47:46 11:50:51 28° 65° (ENE) 11:53:57 435.315
ISS 23 Jun 11:53:54 11:56:10 17° 147° (SSE) 11:58:26 437.550
AAUSAT CUBESAT 2 23 Jun 11:59:35 12:02:52 23° 299° (WNW) 12:06:08 437.432
DUCHIFAT 1 23 Jun 12:02:58 12:06:21 23° 59° (ENE) 12:09:45 145.980
YUBILEINY 23 Jun 12:08:25 12:16:44 48° 273° (W) 12:25:00 435.215
Tancredo 1 23 Jun 12:08:25 12:11:03 27° 156° (SSE) 12:13:42 437.200
NANOSAT C BR1 23 Jun 12:09:32 12:13:11 28° 62° (ENE) 12:16:51 145.865
TIGRISAT 23 Jun 12:16:33 12:20:38 31° 266° (W) 12:24:49 435.000
DELFI C3 23 Jun 12:16:55 12:20:53 85° 105° (ESE) 12:24:50 145.870
EO-88 23 Jun 12:24:40 12:28:21 74° 103° (ESE) 12:32:00 145.990 - 145.960
CUBEBUG 2 23 Jun 12:28:51 12:31:15 14° 310° (NW) 12:33:38 437.445
Oscar 19 23 Jun 12:33:15 12:35:35 13° 45° (NE) 12:37:55 437.125/150
HO-68 23 Jun 12:34:51 12:40:12 23° 317° (NW) 12:45:32 435.675
AO-73 23 Jun 12:36:03 12:39:37 23° 301° (WNW) 12:43:07 145.935
POLYITAN 1 23 Jun 12:43:46 12:47:58 59° 70° (ENE) 12:52:13 437.675
QB50P2 23 Jun 12:54:22 12:58:38 79° 72° (ENE) 13:02:57 145.880/145.840
LO-87 23 Jun 12:57:01 13:00:13 28° 95° (E) 13:03:23 145.935 - 145.965
FO-29 23 Jun 12:57:24 13:01:58 21° 278° (W) 13:06:55 435.910
UNISAT 6 23 Jun 13:00:09 13:02:30 14° 276° (W) 13:04:54 437.425
Gurwin Techsat 1B 23 Jun 13:03:03 13:06:04 15° 47° (NE) 13:09:06 435.225
AO-7 23 Jun 13:04:52 13:09:46 17° 22° (NNE) 13:14:41 .
Oscar 11 23 Jun 13:07:23 13:10:02 16° 305° (NW) 13:12:40 .
ZACube-1 23 Jun 13:10:22 13:12:29 13° 310° (NW) 13:14:35 437.345
EO-79 23 Jun 13:20:00 13:24:14 67° 257° (WSW) 13:28:32 145.935-145.965
AIST 2D 23 Jun 13:20:50 13:24:01 30° 264° (W) 13:27:13 435.315
ESTCUBE 1 23 Jun 13:22:35 13:26:40 33° 96° (E) 13:30:45 437.505/2401.250
BUGSAT 1 23 Jun 13:23:46 13:27:41 43° 67° (ENE) 13:31:41 437.445
PCSat 23 Jun 13:28:54 13:32:05 16° 105° (ESE) 13:35:15 145.827
ISS 23 Jun 13:28:58 13:32:07 44° 166° (SSE) 13:35:18 437.550
VELOX 1 23 Jun 13:37:34 13:40:01 14° 87° (E) 13:42:28 145.980
DUCHIFAT 1 23 Jun 13:37:34 13:41:44 55° 259° (W) 13:45:56 145.980
Tancredo 1 23 Jun 13:43:21 13:46:20 51° 176° (S) 13:49:19 437.200
NANOSAT C BR1 23 Jun 13:44:42 13:48:45 43° 262° (W) 13:52:51 145.865
DELFI C3 23 Jun 13:52:53 13:55:08 15° 304° (NW) 13:57:22 145.870
EO-88 23 Jun 13:59:26 14:01:34 15° 303° (WNW) 14:03:41 145.990 - 145.960
YUBILEINY 23 Jun 14:08:09 14:11:10 12° 298° (WNW) 14:14:10 435.215
DX 1 23 Jun 14:08:12 14:08:28 10° 84° (E) 14:08:43 434.975-435.025
Oscar 19 23 Jun 14:08:53 14:13:53 53° 66° (ENE) 14:18:54 437.125/150
SPROUT 23 Jun 14:18:58 14:22:56 34° 96° (E) 14:26:54 437.525
POLYITAN 1 23 Jun 14:20:55 14:24:08 20° 269° (W) 14:27:22 437.675
UKube-1 23 Jun 14:29:58 14:31:30 12° 85° (E) 14:33:01 .
LO-87 23 Jun 14:30:24 14:33:40 31° 294° (WNW) 14:36:55 145.935 - 145.965
QB50P2 23 Jun 14:32:24 14:34:59 16° 272° (W) 14:37:35 145.880/145.840
Gurwin Techsat 1B 23 Jun 14:39:51 14:45:05 62° 68° (ENE) 14:50:21 435.225
50 SAT 23 Jun 14:40:54 14:43:42 23° 95° (E) 14:46:31 437.505
ITAMSAT 1 23 Jun 14:42:41 14:45:51 17° 48° (NE) 14:49:02 435.822/435.867
AO-7 23 Jun 14:52:56 15:00:21 38° 47° (NE) 15:07:48 .
ESTCUBE 1 23 Jun 14:59:23 15:03:33 38° 295° (WNW) 15:07:41 437.505/2401.250
BUGSAT 1 23 Jun 14:59:41 15:03:13 27° 266° (W) 15:06:49 437.445
ISS 23 Jun 15:05:09 15:08:23 53° 186° (S) 15:11:37 437.550
PCSat 23 Jun 15:09:10 15:14:35 72° 126° (SE) 15:20:02 145.827
VELOX 1 23 Jun 15:12:40 15:17:07 88° 287° (WNW) 15:21:34 145.980
Tancredo 1 23 Jun 15:18:49 15:21:42 38° 195° (SSW) 15:24:34 437.200
